Home   Weather   Rzeszów   Past weeks

Flag for Poland Past Weather in Rzeszów, Poland — Yesterday and Last 2 Weeks

Now
52 °F

Partly sunny.


Feels Like: 50 °F
Forecast: 44 / 53 °F
Wind: 6 mph from North

Location: Rzeszow-Jasionka

Current Time: Apr 26, 2017 at 12:08:31 pm

Latest Report: Apr 26, 2017 at 11:30 am


Visibility: 5 mi

Pressure: 29.80 "Hg

Humidity: 77%

Dew Point: 45 °F

Location of RzeszówLocation

Past Weather in Rzeszów — Graph

°F

Rzeszów Temperature Yesterday

Maximum temperature yesterday: 64 °F (at 3:00 pm)
Minimum temperature yesterday: 34 °F (at 12:00 am)
Average temperature yesterday: 52 °F

High & Low Weather Summary for the Past Weeks

 TemperatureHumidityPressure
High64 °F (Apr 25, 3:00 pm)100% (Apr 17, 3:30 am)30.33 "Hg (Apr 17, 3:30 am)
Low23 °F (Apr 17, 5:00 am)37% (Apr 17, 4:30 pm)29.68 "Hg (Apr 13, 5:00 am)
Average43 °F66%29.96 "Hg
* Reported Apr 11 11:00 am — Apr 26 11:00 am, Rzeszów, Weather by CustomWeather, © 2017

Note: Actual official high and low records may vary slightly from our data, if they occured in-between our weather recording intervals... More about our weather records

Advertising

Rzeszów Weather History for the Previous 24 Hours

Scroll right to see more
 ConditionsComfort  
Time TempWeatherWind HumidityBarometerVisibility
11:00 am
Wed, Apr 26
52 °FPartly sunny.7 mph77%29.80 "Hg5 mi
10:30 am50 °FPartly sunny.7 mph82%29.80 "Hg5 mi
10:00 am50 °FMostly cloudy.8 mph82%29.80 "Hg5 mi
9:30 am50 °FPartly sunny.8 mph82%29.80 "Hg5 mi
9:00 am50 °FPartly sunny.8 mph82%29.80 "Hg5 mi
8:30 am48 °FLow clouds.8 mph87%29.80 "Hg5 mi
8:00 am48 °FPartly sunny.8 mph87%29.80 "Hg5 mi
7:30 am48 °FMore clouds than sun.9 mph87%29.77 "HgN/A
7:00 am48 °FLow clouds.10 mph87%29.77 "Hg6 mi
6:30 am48 °FPartly sunny.7 mph94%29.74 "Hg4 mi
6:00 am48 °FPartly sunny.7 mph94%29.74 "Hg4 mi
5:30 am48 °FSunny.10 mph94%29.71 "Hg10 mi
5:00 am50 °FClear.8 mph82%29.74 "Hg10 mi
4:30 am52 °FClear.10 mph77%29.74 "Hg10 mi
4:00 am50 °FPassing clouds.7 mph76%29.71 "HgN/A
3:30 am52 °FClear.3 mph72%29.71 "Hg10 mi
3:00 am52 °FPassing clouds.3 mph77%29.71 "HgN/A
2:30 am54 °FPassing clouds.5 mph67%29.71 "HgN/A
2:00 am55 °FClear.6 mph63%29.71 "Hg10 mi
1:30 am55 °FClear.9 mph67%29.71 "Hg10 mi
1:00 am54 °FClear.7 mph72%29.71 "Hg10 mi
12:30 am54 °FPassing clouds.3 mph72%29.74 "HgN/A
12:00 am55 °FPassing clouds.7 mph72%29.74 "HgN/A
11:30 pm
Tue, Apr 25
55 °FSprinkles. Passing clouds.9 mph72%29.74 "HgN/A
11:00 pm52 °FSprinkles. Passing clouds.6 mph77%29.74 "HgN/A
10:30 pm48 °FClear.6 mph87%29.74 "Hg10 mi
10:00 pm48 °FClear.6 mph94%29.74 "Hg10 mi
9:30 pm50 °FClear.7 mph88%29.77 "Hg10 mi
9:00 pm52 °FClear.5 mph82%29.77 "Hg10 mi
8:30 pm54 °FPassing clouds.3 mph82%29.77 "HgN/A
8:00 pm54 °FPassing clouds.5 mph77%29.77 "HgN/A
7:30 pm55 °FPartly sunny.8 mph77%29.77 "HgN/A
7:00 pm61 °FPassing clouds.9 mph59%29.77 "HgN/A
6:30 pm63 °FSunny.21 mph49%29.74 "Hg10 mi
6:00 pm63 °FSunny.20 mph49%29.74 "Hg10 mi
5:30 pm63 °FSunny.25 mph49%29.74 "Hg10 mi
5:00 pm63 °FSunny.24 mph49%29.74 "Hg10 mi
4:30 pm64 °FSunny.24 mph43%29.74 "Hg10 mi
4:00 pm64 °FSunny.23 mph46%29.74 "Hg10 mi
3:30 pm64 °FSunny.28 mph46%29.74 "Hg10 mi
3:00 pm64 °FSunny.24 mph43%29.74 "Hg10 mi
2:30 pm63 °FSunny.26 mph45%29.74 "Hg10 mi
2:00 pm63 °FPassing clouds.24 mph45%29.74 "HgN/A
1:30 pm63 °FSunny.21 mph42%29.77 "Hg10 mi
1:00 pm61 °FSunny.26 mph45%29.77 "Hg10 mi
12:30 pm61 °FSunny.25 mph45%29.77 "Hg10 mi
12:00 pm61 °FSunny.26 mph45%29.77 "Hg10 mi
Weather by CustomWeather, © 2017

See weather overviewHow to use our weather pages